Weather in Baturino

Russia / Tomsk District     57°45′14″N   85°10′40″E
temp.,
°C
wind,
m/s
gust,
m/s
humid.,
%
clouds,
%
prec.,
mm/h
press.,
hPa
HPBL,
m
14 may, fri
fri1401:00+7nw26895 0.0 1014119
04:00+5nw3108115 0.0 1015292
07:00+8nw4878100 0.0 10171125
10:00+9nnw68505 0.1 10181353
13:00+11nw583374 0.1 10191664
16:00+13nw572768 0.0 10191764
19:00+12nw473281 0.0 10191732
22:00+7wnw4964100 0.0 1021418
15 may, sat
sat1501:00+6ssw31277100 0.6 1018302
04:00+10sw5155198 0.0 1015606
07:00+11wsw5146699 0.3 1014583
10:00+15w596463 0.2 1014786
13:00+20w465238 0.2 10131253
16:00+23w61245100 0.1 10112271
19:00+12ne51093100 2.7 1013444
22:00+10ne259344 3.4 1016413
16 may, sun
sun1601:00+7ne239881 3.4 101680
04:00+5ene229849 0.0 101527
07:00+7ese2492100 0.0 1014194
10:00+8ene4797100 6.2 1012344
13:00+7ene489499 12.6 1012405
16:00+6ne3692100 0.0 1013361
19:00+7ne4786100 0.0 1013501
22:00+5nne229643 0.0 101543
17 may, mon
mon1701:00+3nne229691 0.0 101645
04:00+4ne239048 0.0 101669
07:00+5n2384100 0.0 1018189
10:00+10nw1261100 0.0 1018669
13:00+12nw2355100 0.0 10171287
16:00+12wnw2357100 0.0 10161295
19:00+12nne1171100 0.1 101569
22:00+9se1289100 0.6 101342
18 may, tue
tue1801:00+8se3995100 1.9 1010360
04:00+8ese2697100 0.1 1007298
07:00+8ene3698100 0.1 1007255
10:00+8ene3794100 0.0 1007427
13:00+8ene3692100 0.1 1009455
16:00+8ene2593100 0.3 1010373
19:00+8ene1390100 0.3 1010257
22:00+7ene1294100 0.2 101038